Overview Statistics Trail Chart Weather Telemetry Raw packets
 

This is the latest recevied weather packets stored in our database for station/object SV9TNF-52. If no packets are shown the sender has not sent any weather packets the latest 10 day(s).

<< 1 2 3 4 5 6 >>
Time Temp. Humidity Pressure Rain* Wind** Luminosity Snow
1788652376 22.78° C 51% 1022 hPa 0 mm 8.49 m/s, 228° - -
1788652076 22.78° C 51% 1022 hPa 0 mm 8.94 m/s, 188° - -
1788651778 22.78° C 52% 1022 hPa 0 mm 8.05 m/s, 182° - -
1788651476 22.78° C 53% 1022 hPa 0 mm 8.49 m/s, 197° - -
1788651176 22.22° C 54% 1022.4 hPa 0 mm 7.6 m/s, 242° - -
1788650876 22.22° C 55% 1022.4 hPa 0 mm 8.05 m/s, 195° - -
1788650576 22.22° C 55% 1022.4 hPa 0 mm 4.92 m/s, 217° - -
1788650276 22.78° C 54% 1022.4 hPa 0 mm 7.15 m/s, 207° - -
1788649976 22.78° C 55% 1022.4 hPa 0 mm 4.92 m/s, 221° - -
1788649677 22.78° C 54% 1022.7 hPa 0 mm 6.71 m/s, 253° - -
1788649375 22.78° C 55% 1022.7 hPa 0 mm 8.05 m/s, 198° - -
1788649078 22.78° C 55% 1022.7 hPa 0 mm 7.6 m/s, 184° - -
1788648775 22.78° C 56% 1022.7 hPa 0 mm 6.26 m/s, 188° - -
1788648475 22.78° C 57% 1022.7 hPa 0 mm 6.71 m/s, 216° - -
1788648175 22.78° C 57% 1022.7 hPa 0 mm 6.71 m/s, 225° - -
1788647875 22.78° C 58% 1022.7 hPa 0 mm 8.05 m/s, 188° - -
1788647575 22.78° C 58% 1022.7 hPa 0 mm 5.81 m/s, 190° - -
1788647275 22.78° C 58% 1022.7 hPa 0 mm 6.26 m/s, 227° - -
1788646974 22.78° C 59% 1022.7 hPa 0 mm 5.36 m/s, 217° - -
1788646674 22.78° C 58% 1022.7 hPa 0 mm 4.92 m/s, 187° - -
1788646374 23.33° C 57% 1022.7 hPa 0 mm 8.49 m/s, 267° - -
1788646074 23.33° C 58% 1022.7 hPa 0 mm 6.26 m/s, 214° - -
1788645774 23.33° C 58% 1022.7 hPa 0 mm 8.05 m/s, 282° - -
1788645474 23.33° C 58% 1022.7 hPa 0 mm 7.15 m/s, 225° - -
1788645174 23.33° C 58% 1022.7 hPa 0 mm 5.36 m/s, 288° - -

* Rain latest hour (hover to see other rain measurements)
** Current wind speed in m/s (hover to see current wind gust speed)